Location: Unspecified
(0.0000°N, 0.0000°E)
Time: 12:19:34
(UTC+00:00)

GALILEO 12 (269) - Visible Passes

Search period start: 04 December 2022 00:00
Search period end: 14 December 2022 00:00
Orbit: 23217 x 23227 km, 55.2° (Epoch: 02 December)

Date Brightness Start Highest point End Pass type
(mag) Time Alt. Az. Time Alt. Az. Time Alt. Az.
04 Dec ? 18:57:10 10° WNW 20:16:56 15° W 06:56:58 10° NNE daylight
06 Dec ? 05:25:38 10° SW 07:30:51 27° W 17:49:11 10° SSE visible
07 Dec ? 16:11:25 10° NW 18:43:44 39° W 04:42:04 10° NNE visible
09 Dec ? 03:03:01 10° SSW 05:56:32 51° W 15:33:08 10° SE visible
10 Dec ? 13:55:57 10° NNW 17:08:56 64° W 02:17:41 10° NE visible
12 Dec ? 00:47:42 10° SSW 04:21:26 77° W 12:39:42 10° ESE visible
13 Dec ? 11:31:21 10° NNW 15:33:42 89° E 19:30:56 10° SSE visible
13 Dec ? 11:31:21 10° NNW 15:33:41 89° E 19:30:56 10° SSE visible
13 Dec ? 11:31:21 10° NNW 15:33:42 89° E 19:30:57 10° SSE visible
